| time (UTC) | temp C | wind direction | speed KPH | gust KPH | rain 1hr cm | rain 24hr cm | rain mn cm | humidity % | barometer mb |
| 20260906130631 | 27 | 220 | 3.2 | 8.0 | 0.00 | 0.00 | 0.00 | 89 | 1010.6 |
| 20260906130131 | 27 | 223 | 1.6 | 11.3 | 0.00 | 0.00 | 0.00 | 89 | 1010.6 |
| 20260906125630 | 27 | 217 | 4.8 | 9.7 | 0.00 | 0.00 | 0.00 | 89 | 1010.5 |
| 20260906124630 | 26 | 224 | 4.8 | 9.7 | 0.00 | 0.00 | 0.00 | 90 | 1010.5 |
| 20260906123631 | 26 | 223 | 3.2 | 8.0 | 0.00 | 0.00 | 0.00 | 91 | 1010.3 |
| 20260906123130 | 26 | 230 | 3.2 | 11.3 | 0.00 | 0.00 | 0.00 | 91 | 1010.3 |
| 20260906122131 | 26 | 218 | 6.4 | 11.3 | 0.00 | 0.00 | 0.00 | 91 | 1010.3 |
| 20260906121630 | 26 | 233 | 4.8 | 11.3 | 0.00 | 0.00 | 0.00 | 91 | 1010.3 |
| 20260906121131 | 26 | 223 | 1.6 | 9.7 | 0.00 | 0.00 | 0.00 | 91 | 1010.3 |
| 20260906120630 | 26 | 223 | 1.6 | 4.8 | 0.00 | 0.00 | 0.00 | 91 | 1010.5 |
| 20260906120130 | 26 | 223 | 1.6 | 3.2 | 0.00 | 0.00 | 0.00 | 91 | 1010.5 |
| 20260906115630 | 26 | 223 | 1.6 | 4.8 | 0.00 | 0.00 | 0.00 | 91 | 1010.5 |
| 20260906115130 | 25 | 223 | 1.6 | 3.2 | 0.00 | 0.00 | 0.00 | 91 | 1010.6 |
| 20260906114630 | 25 | 224 | 1.6 | 3.2 | 0.00 | 0.00 | 0.00 | 91 | 1010.6 |
| 20260906114130 | 25 | 223 | 0.0 | 0.0 | 0.00 | 0.00 | 0.00 | 91 | 1010.6 |
| 20260906113630 | 25 | 223 | 0.0 | 0.0 | 0.00 | 0.00 | 0.00 | 91 | 1010.6 |
| 20260906113130 | 25 | 223 | 0.0 | 1.6 | 0.00 | 0.00 | 0.00 | 91 | 1010.6 |
| 20260906112630 | 25 | 223 | 0.0 | 1.6 | 0.00 | 0.00 | 0.00 | 90 | 1010.5 |
| 20260906110129 | 26 | 223 | 1.6 | 4.8 | 0.00 | 0.00 | 0.00 | 90 | 1009.8 |
| 20260906105630 | 26 | 223 | 0.0 | 4.8 | 0.00 | 0.00 | 0.00 | 90 | 1009.7 |
| 20260906105131 | 26 | 223 | 1.6 | 4.8 | 0.00 | 0.00 | 0.00 | 90 | 1009.5 |
| 20260906104630 | 26 | 223 | 3.2 | 4.8 | 0.00 | 0.00 | 0.00 | 90 | 1009.5 |
| 20260906104130 | 26 | 223 | 1.6 | 4.8 | 0.00 | 0.00 | 0.00 | 90 | 1009.4 |
| 20260906103631 | 26 | 223 | 3.2 | 4.8 | 0.00 | 0.00 | 0.00 | 90 | 1009.4 |
| 20260906103131 | 26 | 223 | 3.2 | 4.8 | 0.00 | 0.00 | 0.00 | 90 | 1009.4 |
| 20260906102631 | 26 | 223 | 0.0 | 1.6 | 0.00 | 0.00 | 0.00 | 90 | 1009.4 |
| 20260906102130 | 26 | 223 | 1.6 | 3.2 | 0.00 | 0.00 | 0.00 | 90 | 1009.5 |
| 20260906101630 | 26 | 223 | 3.2 | 4.8 | 0.00 | 0.00 | 0.00 | 90 | 1009.5 |
| 20260906101131 | 26 | 223 | 1.6 | 4.8 | 0.00 | 0.00 | 0.00 | 90 | 1009.4 |
| 20260906100630 | 26 | 223 | 1.6 | 4.8 | 0.00 | 0.00 | 0.00 | 90 | 1009.4 |
| 20260906100130 | 26 | 223 | 1.6 | 8.0 | 0.00 | 0.00 | 0.00 | 90 | 1009.3 |
| 20260906095630 | 26 | 233 | 1.6 | 4.8 | 0.00 | 0.00 | 0.00 | 90 | 1009.3 |
| 20260906095130 | 26 | 233 | 1.6 | 4.8 | 0.00 | 0.00 | 0.00 | 90 | 1009.3 |
| 20260906094630 | 26 | 233 | 1.6 | 8.0 | 0.00 | 0.00 | 0.00 | 90 | 1009.2 |
| 20260906094130 | 26 | 235 | 1.6 | 4.8 | 0.00 | 0.00 | 0.00 | 89 | 1009.2 |
| 20260906093630 | 26 | 235 | 1.6 | 4.8 | 0.00 | 0.00 | 0.00 | 89 | 1009.2 |
| 20260906093130 | 26 | 237 | 3.2 | 4.8 | 0.00 | 0.00 | 0.00 | 89 | 1009.3 |
| 20260906092630 | 26 | 233 | 3.2 | 8.0 | 0.00 | 0.00 | 0.00 | 89 | 1009.3 |
| 20260906091630 | 26 | 213 | 3.2 | 8.0 | 0.00 | 0.00 | 0.00 | 89 | 1009.2 |
| 20260906090630 | 26 | 215 | 3.2 | 9.7 | 0.00 | 0.00 | 0.00 | 89 | 1009.2 |
| 20260906090130 | 26 | 215 | 4.8 | 8.0 | 0.00 | 0.00 | 0.00 | 89 | 1009.2 |
| 20260906085630 | 26 | 230 | 3.2 | 4.8 | 0.00 | 0.00 | 0.00 | 89 | 1009.2 |
| 20260906085130 | 26 | 230 | 3.2 | 8.0 | 0.00 | 0.00 | 0.00 | 88 | 1009.1 |
| 20260906084130 | 27 | 221 | 3.2 | 8.0 | 0.00 | 0.00 | 0.00 | 88 | 1009.2 |
| 20260906083131 | 27 | 226 | 0.0 | 3.2 | 0.00 | 0.00 | 0.00 | 88 | 1009.1 |
| 20260906082630 | 27 | 226 | 0.0 | 1.6 | 0.00 | 0.00 | 0.00 | 88 | 1009.2 |
| 20260906082131 | 27 | 226 | 0.0 | 1.6 | 0.00 | 0.00 | 0.00 | 88 | 1009.0 |
| 20260906081631 | 27 | 226 | 1.6 | 3.2 | 0.00 | 0.00 | 0.00 | 88 | 1009.0 |
| 20260906081130 | 27 | 226 | 0.0 | 4.8 | 0.00 | 0.00 | 0.00 | 88 | 1009.0 |
| 20260906080130 | 27 | 226 | 3.2 | 8.0 | 0.00 | 0.00 | 0.00 | 88 | 1009.0 |
| 20260906074630 | 27 | 218 | 3.2 | 4.8 | 0.00 | 0.00 | 0.00 | 87 | 1009.2 |
| 20260906074130 | 27 | 218 | 1.6 | 4.8 | 0.00 | 0.00 | 0.00 | 87 | 1009.1 |
| 20260906073130 | 27 | 217 | 1.6 | 4.8 | 0.00 | 0.00 | 0.00 | 87 | 1009.2 |
| 20260906072630 | 27 | 216 | 3.2 | 8.0 | 0.00 | 0.00 | 0.00 | 87 | 1009.2 |
| 20260906071630 | 27 | 214 | 3.2 | 9.7 | 0.00 | 0.00 | 0.00 | 87 | 1009.2 |
| 20260906071130 | 27 | 234 | 3.2 | 4.8 | 0.00 | 0.00 | 0.00 | 87 | 1009.2 |
| 20260906070630 | 27 | 229 | 3.2 | 9.7 | 0.00 | 0.00 | 0.00 | 87 | 1009.1 |
| 20260906070131 | 27 | 228 | 6.4 | 11.3 | 0.00 | 0.00 | 0.00 | 87 | 1009.1 |
| 20260906064630 | 27 | 222 | 6.4 | 11.3 | 0.00 | 0.00 | 0.00 | 87 | 1009.3 |
| 20260906064130 | 27 | 217 | 3.2 | 8.0 | 0.00 | 0.00 | 0.00 | 87 | 1009.4 |
| 20260906063630 | 27 | 230 | 1.6 | 9.7 | 0.00 | 0.00 | 0.00 | 87 | 1009.3 |
| 20260906063131 | 27 | 231 | 3.2 | 11.3 | 0.00 | 0.00 | 0.00 | 87 | 1009.3 |
| 20260906062630 | 27 | 227 | 4.8 | 12.9 | 0.00 | 0.00 | 0.00 | 87 | 1009.5 |
| 20260906061630 | 27 | 224 | 4.8 | 9.7 | 0.00 | 0.00 | 0.00 | 87 | 1009.4 |
| 20260906060630 | 27 | 219 | 4.8 | 12.9 | 0.00 | 0.00 | 0.00 | 88 | 1009.7 |
| 20260906060130 | 27 | 207 | 4.8 | 9.7 | 0.00 | 0.00 | 0.00 | 88 | 1009.7 |
| 20260906055631 | 27 | 228 | 4.8 | 8.0 | 0.00 | 0.00 | 0.00 | 88 | 1009.8 |
| 20260906055131 | 27 | 226 | 1.6 | 4.8 | 0.00 | 0.00 | 0.00 | 88 | 1009.8 |
| 20260906054630 | 27 | 226 | 3.2 | 4.8 | 0.00 | 0.00 | 0.00 | 88 | 1009.9 |
| 20260906054130 | 27 | 226 | 3.2 | 4.8 | 0.00 | 0.00 | 0.00 | 88 | 1009.8 |
| 20260906053630 | 27 | 226 | 3.2 | 4.8 | 0.00 | 0.00 | 0.00 | 88 | 1009.8 |
| 20260906053130 | 27 | 222 | 4.8 | 11.3 | 0.00 | 0.00 | 0.00 | 88 | 1009.9 |
| 20260906052630 | 27 | 173 | 1.6 | 9.7 | 0.00 | 0.00 | 0.00 | 88 | 1009.9 |
| 20260906052130 | 27 | 172 | 3.2 | 8.0 | 0.00 | 0.00 | 0.00 | 89 | 1009.9 |
| 20260906051630 | 27 | 172 | 4.8 | 9.7 | 0.00 | 0.00 | 0.00 | 89 | 1009.9 |
| 20260906051130 | 27 | 171 | 3.2 | 9.7 | 0.00 | 0.00 | 0.00 | 89 | 1009.8 |
| 20260906050631 | 27 | 170 | 1.6 | 8.0 | 0.00 | 0.00 | 0.00 | 89 | 1009.9 |
| 20260906050131 | 27 | 170 | 3.2 | 8.0 | 0.00 | 0.00 | 0.00 | 89 | 1010.0 |
| 20260906045630 | 27 | 169 | 4.8 | 8.0 | 0.00 | 0.00 | 0.00 | 89 | 1009.9 |
| 20260906045131 | 27 | 168 | 3.2 | 8.0 | 0.00 | 0.00 | 0.00 | 89 | 1010.0 |
| 20260906044631 | 27 | 168 | 3.2 | 8.0 | 0.00 | 0.00 | 0.00 | 89 | 1009.9 |
| 20260906044130 | 27 | 168 | 4.8 | 9.7 | 0.00 | 0.00 | 0.00 | 89 | 1009.9 |
| 20260906043630 | 27 | 168 | 3.2 | 11.3 | 0.00 | 0.00 | 0.00 | 89 | 1009.9 |
| 20260906043130 | 27 | 168 | 3.2 | 9.7 | 0.00 | 0.00 | 0.00 | 89 | 1009.9 |
| 20260906042630 | 27 | 168 | 3.2 | 9.7 | 0.00 | 0.00 | 0.00 | 89 | 1009.9 |
| 20260906042130 | 27 | 167 | 4.8 | 9.7 | 0.00 | 0.00 | 0.00 | 89 | 1010.0 |
| 20260906041630 | 27 | 166 | 4.8 | 11.3 | 0.00 | 0.00 | 0.00 | 89 | 1010.0 |
| 20260906041130 | 27 | 166 | 4.8 | 8.0 | 0.00 | 0.00 | 0.00 | 89 | 1010.2 |
| 20260906040630 | 28 | 166 | 4.8 | 9.7 | 0.00 | 0.00 | 0.00 | 89 | 1010.2 |
| 20260906040130 | 28 | 166 | 4.8 | 9.7 | 0.00 | 0.00 | 0.00 | 89 | 1010.3 |
| 20260906035130 | 28 | 171 | 3.2 | 8.0 | 0.00 | 0.00 | 0.00 | 89 | 1010.3 |
| 20260906034631 | 28 | 171 | 3.2 | 8.0 | 0.00 | 0.03 | 0.00 | 89 | 1010.4 |
| 20260906034130 | 28 | 171 | 4.8 | 8.0 | 0.00 | 0.03 | 0.00 | 89 | 1010.5 |
| 20260906033630 | 28 | 171 | 1.6 | 8.0 | 0.00 | 0.03 | 0.00 | 89 | 1010.5 |
| 20260906033131 | 28 | 171 | 3.2 | 8.0 | 0.00 | 0.03 | 0.00 | 88 | 1010.6 |
| 20260906032631 | 28 | 171 | 1.6 | 8.0 | 0.00 | 0.03 | 0.00 | 88 | 1010.6 |
| 20260906032131 | 28 | 170 | 3.2 | 8.0 | 0.00 | 0.03 | 0.00 | 88 | 1010.6 |
| 20260906031630 | 28 | 170 | 3.2 | 8.0 | 0.00 | 0.03 | 0.00 | 88 | 1010.6 |
| 20260906031131 | 28 | 170 | 4.8 | 8.0 | 0.00 | 0.03 | 0.00 | 88 | 1010.6 |
| 20260906030630 | 28 | 170 | 4.8 | 8.0 | 0.00 | 0.03 | 0.00 | 88 | 1010.6 |
| 20260906025630 | 28 | 170 | 3.2 | 8.0 | 0.00 | 0.03 | 0.00 | 87 | 1010.8 |
| 20260906025130 | 28 | 170 | 6.4 | 9.7 | 0.00 | 0.03 | 0.00 | 87 | 1010.8 |
| 20260906024630 | 28 | 170 | 4.8 | 9.7 | 0.00 | 0.03 | 0.00 | 87 | 1010.7 |
| 20260906024130 | 28 | 170 | 3.2 | 11.3 | 0.00 | 0.03 | 0.00 | 87 | 1010.6 |
| 20260906023630 | 28 | 170 | 3.2 | 8.0 | 0.00 | 0.03 | 0.00 | 87 | 1010.7 |
| 20260906023130 | 27 | 170 | 4.8 | 8.0 | 0.00 | 0.03 | 0.00 | 86 | 1010.7 |
| 20260906022630 | 27 | 170 | 3.2 | 9.7 | 0.00 | 0.03 | 0.00 | 86 | 1010.5 |
| 20260906022131 | 27 | 170 | 4.8 | 8.0 | 0.00 | 0.03 | 0.00 | 86 | 1010.5 |
| 20260906020630 | 27 | 170 | 3.2 | 4.8 | 0.00 | 0.03 | 0.00 | 86 | 1010.4 |
| 20260906020130 | 27 | 170 | 3.2 | 8.0 | 0.00 | 0.03 | 0.00 | 86 | 1010.3 |
| 20260906015630 | 27 | 170 | 0.0 | 3.2 | 0.00 | 0.03 | 0.00 | 86 | 1010.3 |
| 20260906015131 | 28 | 170 | 1.6 | 4.8 | 0.00 | 0.03 | 0.00 | 86 | 1010.4 |
| 20260906013630 | 28 | 170 | 0.0 | 1.6 | 0.00 | 0.03 | 0.00 | 85 | 1010.1 |
| 20260906013131 | 28 | 170 | 0.0 | 4.8 | 0.00 | 0.03 | 0.00 | 85 | 1009.9 |
| 20260906012631 | 28 | 170 | 3.2 | 8.0 | 0.00 | 0.03 | 0.00 | 85 | 1009.8 |
| 20260906011630 | 28 | 170 | 4.8 | 9.7 | 0.00 | 0.03 | 0.00 | 85 | 1009.5 |
| 20260906011130 | 28 | 173 | 4.8 | 9.7 | 0.00 | 0.03 | 0.00 | 85 | 1009.6 |
| 20260906010630 | 28 | 172 | 4.8 | 11.3 | 0.00 | 0.03 | 0.00 | 85 | 1009.6 |
| 20260906010130 | 28 | 155 | 3.2 | 4.8 | 0.00 | 0.03 | 0.00 | 86 | 1009.7 |
| 20260906005130 | 28 | 155 | 3.2 | 4.8 | 0.00 | 0.03 | 0.00 | 86 | 1009.5 |
| 20260906004630 | 28 | 155 | 0.0 | 1.6 | 0.00 | 0.03 | 0.00 | 86 | 1009.5 |
| 20260906004131 | 28 | 155 | 0.0 | 0.0 | 0.00 | 0.03 | 0.00 | 85 | 1009.5 |
| 20260906003630 | 28 | 155 | 0.0 | 0.0 | 0.00 | 0.03 | 0.00 | 85 | 1009.4 |
| 20260906003130 | 28 | 155 | 0.0 | 0.0 | 0.00 | 0.03 | 0.00 | 85 | 1009.3 |
| 20260906002630 | 28 | 155 | 0.0 | 1.6 | 0.00 | 0.03 | 0.00 | 85 | 1009.2 |
| 20260906001630 | 28 | 155 | 0.0 | 1.6 | 0.00 | 0.03 | 0.00 | 86 | 1008.9 |
| 20260906000130 | 29 | 155 | 0.0 | 1.6 | 0.00 | 0.03 | 0.00 | 85 | 1009.1 |
| 20260905235631 | 29 | 155 | 0.0 | 3.2 | 0.00 | 0.03 | 0.00 | 85 | 1008.9 |
| 20260905235130 | 30 | 155 | 0.0 | 1.6 | 0.00 | 0.03 | 0.00 | 85 | 1008.9 |
| 20260905234631 | 30 | 155 | 0.0 | 3.2 | 0.00 | 0.03 | 0.00 | 85 | 1009.0 |
| 20260905234131 | 30 | 155 | 1.6 | 4.8 | 0.00 | 0.03 | 0.00 | 84 | 1009.1 |
| 20260905233631 | 30 | 155 | 0.0 | 4.8 | 0.00 | 0.05 | 0.00 | 83 | 1009.1 |
| 20260905233130 | 30 | 155 | 3.2 | 9.7 | 0.00 | 0.05 | 0.00 | 83 | 1009.1 |
| 20260905232130 | 30 | 169 | 4.8 | 9.7 | 0.00 | 0.10 | 0.00 | 82 | 1009.0 |
| 20260905231130 | 31 | 150 | 4.8 | 11.3 | 0.00 | 0.18 | 0.00 | 82 | 1009.0 |
| 20260905230630 | 31 | 157 | 4.8 | 9.7 | 0.00 | 0.23 | 0.00 | 82 | 1009.1 |
| 20260905230130 | 31 | 163 | 9.7 | 16.1 | 0.00 | 0.28 | 0.00 | 81 | 1009.1 |
| 20260905225630 | 31 | 163 | 4.8 | 8.0 | 0.00 | 0.30 | 0.00 | 81 | 1009.2 |
| 20260905225130 | 31 | 146 | 0.0 | 1.6 | 0.00 | 0.38 | 0.00 | 81 | 1009.2 |
| 20260905224630 | 31 | 150 | 1.6 | 11.3 | 0.00 | 0.46 | 0.00 | 81 | 1009.3 |
| 20260905224130 | 31 | 173 | 1.6 | 8.0 | 0.00 | 0.64 | 0.00 | 81 | 1009.4 |
| 20260905223630 | 31 | 167 | 4.8 | 12.9 | 0.00 | 0.86 | 0.00 | 80 | 1009.4 |
| 20260905222630 | 32 | 164 | 4.8 | 9.7 | 0.00 | 2.62 | 0.00 | 79 | 1009.6 |
| 20260905222130 | 32 | 157 | 1.6 | 11.3 | 0.00 | 2.82 | 0.00 | 79 | 1009.6 |
| 20260905221630 | 32 | 167 | 8.0 | 16.1 | 0.00 | 2.82 | 0.00 | 79 | 1009.6 |
| 20260905221130 | 32 | 145 | 0.0 | 1.6 | 0.00 | 2.82 | 0.00 | 79 | 1009.6 |
| 20260905220631 | 32 | 146 | 1.6 | 16.1 | 0.00 | 2.84 | 0.00 | 78 | 1009.5 |
| 20260905220130 | 33 | 167 | 0.0 | 11.3 | 0.00 | 2.84 | 0.00 | 78 | 1009.5 |
| 20260905215130 | 32 | 190 | 0.0 | 8.0 | 0.00 | 2.84 | 0.00 | 79 | 1009.6 |
| 20260905214630 | 32 | 163 | 0.0 | 3.2 | 0.00 | 2.87 | 0.00 | 79 | 1009.6 |
| 20260905214130 | 32 | 166 | 0.0 | 4.8 | 0.00 | 2.90 | 0.00 | 79 | 1009.7 |
| 20260905213630 | 32 | 162 | 0.0 | 3.2 | 0.00 | 2.92 | 0.00 | 79 | 1009.8 |
| 20260905213130 | 32 | 186 | 0.0 | 9.7 | 0.00 | 2.95 | 0.00 | 80 | 1009.8 |
| 20260905212630 | 32 | 167 | 8.0 | 11.3 | 0.00 | 3.00 | 0.00 | 81 | 1009.8 |
| 20260905212130 | 32 | 216 | 0.0 | 4.8 | 0.00 | 3.15 | 0.00 | 80 | 1009.7 |
| 20260905211130 | 32 | 213 | 6.4 | 12.9 | 0.00 | 3.38 | 0.00 | 78 | 1009.8 |
| 20260905210630 | 32 | 210 | 9.7 | 16.1 | 0.00 | 3.40 | 0.00 | 77 | 1009.8 |
| 20260905210130 | 32 | 223 | 0.0 | 3.2 | 0.00 | 3.43 | 0.00 | 77 | 1009.8 |
| 20260905205630 | 32 | 223 | 0.0 | 0.0 | 0.00 | 3.45 | 0.00 | 75 | 1009.7 |
| 20260905205131 | 32 | 223 | 1.6 | 4.8 | 0.00 | 3.48 | 0.00 | 74 | 1009.8 |
| 20260905204630 | 32 | 223 | 0.0 | 4.8 | 0.00 | 3.51 | 0.00 | 74 | 1009.8 |
| 20260905204130 | 32 | 223 | 0.0 | 0.0 | 0.00 | 3.51 | 0.00 | 75 | 1009.7 |
| 20260905203630 | 32 | 223 | 1.6 | 11.3 | 0.00 | 3.53 | 0.00 | 75 | 1009.8 |
| 20260905203130 | 32 | 213 | 0.0 | 1.6 | 0.00 | 3.53 | 0.00 | 76 | 1009.6 |
| 20260905202630 | 32 | 213 | 1.6 | 4.8 | 0.00 | 3.58 | 0.00 | 76 | 1009.5 |
| 20260905202131 | 32 | 221 | 0.0 | 1.6 | 0.00 | 3.63 | 0.00 | 75 | 1009.4 |
| 20260905201131 | 32 | 224 | 1.6 | 11.3 | 0.00 | 3.66 | 0.00 | 76 | 1009.7 |
| 20260905200631 | 32 | 255 | 0.0 | 0.0 | 0.00 | 3.66 | 0.00 | 76 | 1009.7 |
| 20260905200130 | 32 | 255 | 0.0 | 0.0 | 0.00 | 3.66 | 0.00 | 76 | 1009.7 |
| 20260905195631 | 32 | 299 | 0.0 | 3.2 | 0.00 | 3.68 | 0.00 | 76 | 1009.8 |
| 20260905195130 | 32 | 229 | 0.0 | 8.0 | 0.00 | 3.68 | 0.00 | 76 | 1009.8 |
| 20260905194630 | 32 | 235 | 0.0 | 3.2 | 0.00 | 3.68 | 0.00 | 76 | 1009.8 |
| 20260905193630 | 32 | 218 | 1.6 | 9.7 | 0.00 | 3.71 | 0.00 | 75 | 1009.7 |
| 20260905193130 | 32 | 233 | 0.0 | 1.6 | 0.00 | 3.73 | 0.00 | 77 | 1009.9 |
| 20260905192630 | 32 | 233 | 0.0 | 11.3 | 0.00 | 3.76 | 0.00 | 76 | 1010.1 |
| 20260905192131 | 32 | 225 | 0.0 | 11.3 | 0.00 | 3.81 | 0.00 | 77 | 1010.3 |
| 20260905191630 | 32 | 218 | 0.0 | 4.8 | 0.00 | 3.84 | 0.00 | 76 | 1010.4 |
| 20260905191131 | 33 | 235 | 1.6 | 14.5 | 0.00 | 3.89 | 0.00 | 76 | 1010.5 |
| 20260905190631 | 33 | 11 | 0.0 | 12.9 | 0.00 | 3.91 | 0.00 | 74 | 1010.3 |
| 20260905190130 | 33 | 232 | 4.8 | 22.5 | 0.00 | 3.94 | 0.00 | 75 | 1010.2 |
| 20260905185130 | 33 | 245 | 0.0 | 3.2 | 0.00 | 3.94 | 0.00 | 75 | 1010.2 |
| 20260905184631 | 33 | 5 | 1.6 | 12.9 | 0.00 | 3.94 | 0.00 | 77 | 1010.2 |
| 20260905184130 | 33 | 226 | 0.0 | 8.0 | 0.00 | 3.94 | 0.00 | 75 | 1010.3 |
| 20260905183630 | 32 | 226 | 1.6 | 8.0 | 0.00 | 3.94 | 0.00 | 75 | 1010.5 |
| 20260905182630 | 32 | 313 | 0.0 | 1.6 | 0.00 | 3.94 | 0.00 | 78 | 1010.5 |
| 20260905181631 | 32 | 325 | 0.0 | 1.6 | 0.00 | 3.94 | 0.00 | 78 | 1010.7 |
| 20260905181130 | 32 | 264 | 0.0 | 1.6 | 0.00 | 3.94 | 0.00 | 77 | 1010.8 |
| 20260905180131 | 32 | 210 | 4.8 | 12.9 | 0.00 | 3.94 | 0.00 | 75 | 1010.8 |
| 20260905175630 | 32 | 22 | 0.0 | 4.8 | 0.00 | 3.94 | 0.00 | 79 | 1010.8 |
| 20260905175130 | 32 | 13 | 0.0 | 1.6 | 0.00 | 3.94 | 0.00 | 79 | 1011.0 |
| 20260905174631 | 31 | 223 | 1.6 | 8.0 | 0.00 | 3.99 | 0.00 | 81 | 1011.1 |
| 20260905174130 | 31 | 344 | 0.0 | 4.8 | 0.00 | 4.37 | 0.00 | 80 | 1011.2 |
| 20260905173630 | 32 | 31 | 0.0 | 1.6 | 0.00 | 4.47 | 0.00 | 80 | 1011.2 |
| 20260905173131 | 31 | 346 | 1.6 | 12.9 | 0.00 | 4.47 | 0.00 | 82 | 1011.4 |
| 20260905172130 | 31 | 26 | 0.0 | 4.8 | 0.00 | 4.47 | 0.00 | 81 | 1011.4 |
| 20260905171630 | 31 | 230 | 1.6 | 19.3 | 0.00 | 4.47 | 0.00 | 81 | 1011.5 |
| 20260905171130 | 30 | 198 | 3.2 | 19.3 | 0.00 | 4.47 | 0.00 | 83 | 1011.7 |
| 20260905170630 | 30 | 340 | 3.2 | 8.0 | 0.00 | 4.47 | 0.00 | 83 | 1011.8 |
| 20260905170130 | 30 | 305 | 1.6 | 4.8 | 0.00 | 4.47 | 0.00 | 83 | 1012.0 |
| 20260905165630 | 30 | 24 | 3.2 | 8.0 | 0.00 | 4.47 | 0.00 | 83 | 1012.1 |
| 20260905165131 | 30 | 10 | 4.8 | 14.5 | 0.00 | 4.47 | 0.00 | 83 | 1012.2 |
| 20260905164630 | 30 | 22 | 4.8 | 11.3 | 0.00 | 4.47 | 0.00 | 82 | 1012.2 |
| 20260905164130 | 30 | 8 | 6.4 | 14.5 | 0.00 | 4.47 | 0.00 | 81 | 1012.3 |
| 20260905163630 | 30 | 26 | 3.2 | 8.0 | 0.00 | 4.47 | 0.00 | 82 | 1012.3 |
| 20260905163130 | 30 | 15 | 0.0 | 0.0 | 0.00 | 4.47 | 0.00 | 83 | 1012.4 |
| 20260905162630 | 30 | 315 | 1.6 | 4.8 | 0.00 | 4.47 | 0.00 | 82 | 1012.4 |
| 20260905161630 | 30 | 349 | 1.6 | 14.5 | 0.00 | 4.47 | 0.00 | 82 | 1012.5 |
| 20260905161130 | 30 | 229 | 3.2 | 8.0 | 0.00 | 4.47 | 0.00 | 82 | 1012.6 |
| 20260905160630 | 30 | 23 | 3.2 | 8.0 | 0.00 | 4.47 | 0.00 | 83 | 1012.7 |
| 20260905155631 | 29 | 26 | 3.2 | 8.0 | 0.00 | 4.47 | 0.00 | 84 | 1012.9 |
| 20260905155129 | 29 | 293 | 1.6 | 4.8 | 0.00 | 4.47 | 0.00 | 84 | 1012.9 |
| 20260905154630 | 30 | 5 | 1.6 | 4.8 | 0.00 | 4.47 | 0.00 | 84 | 1013.0 |
| 20260905154130 | 29 | 251 | 3.2 | 11.3 | 0.00 | 4.47 | 0.00 | 84 | 1012.9 |
| 20260905153131 | 29 | 311 | 0.0 | 4.8 | 0.00 | 4.47 | 0.00 | 86 | 1012.9 |
| 20260905152631 | 28 | 223 | 0.0 | 9.7 | 0.00 | 4.47 | 0.00 | 86 | 1012.9 |
| 20260905151630 | 28 | 328 | 1.6 | 4.8 | 0.00 | 4.47 | 0.00 | 87 | 1013.0 |
| 20260905151130 | 28 | 36 | 1.6 | 4.8 | 0.00 | 4.47 | 0.00 | 90 | 1013.1 |
| 20260905150630 | 28 | 305 | 1.6 | 4.8 | 0.00 | 4.47 | 0.00 | 90 | 1013.1 |
| 20260905150130 | 28 | 348 | 1.6 | 4.8 | 0.00 | 4.47 | 0.00 | 91 | 1013.1 |
| 20260905145630 | 28 | 306 | 3.2 | 4.8 | 0.00 | 4.47 | 0.00 | 92 | 1013.1 |
| 20260905145130 | 27 | 42 | 0.0 | 4.8 | 0.00 | 4.47 | 0.00 | 93 | 1013.1 |
| 20260905144630 | 27 | 224 | 0.0 | 3.2 | 0.00 | 4.47 | 0.00 | 93 | 1013.1 |
| 20260905143631 | 27 | 224 | 1.6 | 3.2 | 0.00 | 4.47 | 0.00 | 94 | 1013.2 |
| 20260905142631 | 27 | 234 | 0.0 | 4.8 | 0.00 | 4.47 | 0.00 | 94 | 1013.1 |
| 20260905142131 | 27 | 298 | 1.6 | 4.8 | 0.00 | 4.47 | 0.00 | 95 | 1013.0 |
| 20260905141630 | 27 | 324 | 1.6 | 3.2 | 0.00 | 4.47 | 0.00 | 95 | 1013.1 |
| 20260905141130 | 27 | 325 | 1.6 | 4.8 | 0.00 | 4.47 | 0.00 | 95 | 1013.1 |
| 20260905140631 | 27 | 242 | 3.2 | 9.7 | 0.00 | 4.47 | 0.00 | 95 | 1013.2 |
| 20260905140131 | 27 | 245 | 1.6 | 4.8 | 0.00 | 4.47 | 0.00 | 95 | 1013.1 |
| 20260905135631 | 27 | 272 | 0.0 | 4.8 | 0.00 | 4.47 | 0.00 | 95 | 1013.1 |
| 20260905135130 | 26 | 242 | 1.6 | 4.8 | 0.00 | 4.47 | 0.00 | 95 | 1013.0 |
| 20260905134630 | 26 | 206 | 0.0 | 4.8 | 0.00 | 4.47 | 0.00 | 95 | 1013.0 |
| 20260905134130 | 26 | 262 | 0.0 | 3.2 | 0.00 | 4.47 | 0.00 | 95 | 1012.9 |
| 20260905133130 | 26 | 204 | 3.2 | 4.8 | 0.00 | 4.47 | 0.00 | 95 | 1013.0 |
| 20260905132630 | 26 | 204 | 0.0 | 4.8 | 0.00 | 4.47 | 0.00 | 95 | 1013.0 |
| 20260905131631 | 26 | 200 | 1.6 | 9.7 | 0.00 | 4.47 | 0.00 | 95 | 1013.1 |